GFSSGP_con_sbcape_159.txt.gz
CAPE
0 0 0 0 0 0 0 0 0 40 34 0 7 48 127 65 104 24 231 352 527 1113 1662 2067 2087 1950 1621 1373 1288 1300 1225 1237 1172 996 1378 1590 1479 1222 959 764 916 1031 569 493 482 578 718 605 321
0 0 0 0 0 0 0 0 0 152 88 0 3 74 76 12 120 391 240 256 581 1023 1463 1857 2094 1872 1652 1432 1319 1261 1258 1300 1172 967 1423 1464 1333 1154 991 729 600 627 480 415 308 208 207 230 293
0 0 0 0 0 0 0 0 106 105 100 1 13 342 72 1 432 498 208 386 352 696 1416 2011 2061 1845 1737 1505 1345 1294 1306 1305 1151 1092 1320 1318 1126 955 818 689 531 423 196 232 210 183 196 105 35
0 0 0 0 0 0 0 0 0 17 0 0 19 183 94 0 485 412 271 187 221 935 1547 2023 2037 1911 1760 1568 1422 1353 1344 1231 1152 1172 1236 1182 1078 1009 866 597 427 401 156 29 18 54 0 0 0
0 0 0 0 0 0 0 0 0 8 0 0 68 172 111 527 393 264 155 38 305 1017 1511 1736 1930 1927 1804 1651 1490 1342 1277 1173 1161 1192 1245 1158 1087 1095 961 680 455 315 193 67 4 0 0 0 0
0 0 0 0 0 0 0 0 0 3 10 714 882 665 736 571 409 183 98 2 671 838 1257 1538 1810 1783 1678 1587 1447 1259 1150 1145 1124 1134 1233 1140 1066 1004 724 386 187 116 118 79 24 17 12 31 69
0 0 0 0 0 0 0 0 0 0 0 636 222 351 721 331 455 106 30 313 340 498 885 1245 1353 1354 1643 1517 1335 1197 1081 1095 1054 1065 1085 1031 979 783 622 353 137 64 21 12 20 42 58 93 131
0 0 0 0 0 0 0 0 0 0 131 641 71 42 488 140 428 173 105 207 102 258 526 667 985 1070 1042 1188 1392 1199 1086 1035 995 977 949 857 782 715 699 422 314 255 202 171 110 82 100 115 122
0 0 0 0 0 0 0 0 0 0 444 1104 1507 1024 620 109 289 215 284 73 29 12 21 125 117 159 269 594 903 1075 918 923 918 908 856 528 144 258 356 460 443 641 501 438 375 356 338 308 304
0 0 0 0 0 0 0 0 0 3 577 1072 894 601 570 99 182 365 426 158 75 3 0 0 0 0 0 39 314 201 234 411 280 243 405 37 0 0 5 344 735 898 702 610 528 467 476 515 7
0 0 0 0 0 0 0 0 0 0 67 460 664 395 57 118 362 755 299 230 95 20 0 0 0 0 0 0 0 0 1 1 1 0 36 0 0 0 38 12 273 210 598 216 184 60 53 15 0
0 0 0 0 0 0 0 0 0 0 0 679 641 414 72 0 244 898 215 207 162 59 32 1 1 4 1 0 0 0 0 0 0 0 1 0 1 406 69 10 27 22 3 10 0 0 0 0 0
0 0 0 0 0 0 0 0 0 0 0 458 692 319 103 0 452 705 192 259 261 115 74 112 60 75 181 10 11 64 60 99 75 195 306 600 1059 484 361 138 259 52 55 5 0 0 0 0 0
0 0 0 0 0 0 0 0 0 0 0 0 886 683 355 330 363 544 175 127 211 197 218 251 137 791 340 293 68 220 312 284 386 484 930 872 916 797 571 605 258 29 36 24 103 331 402 272 85
0 0 0 0 0 0 0 0 0 0 0 970 1009 328 39 117 169 158 385 245 535 626 934 615 806 1838 1665 1516 1294 1247 994 1102 917 1058 1059 1050 1014 640 828 559 639 955 955 1305 847 514 467 505 664
0 0 0 0 0 0 0 0 0 0 0 483 1035 599 241 39 164 86 261 349 428 651 953 1016 1251 1972 1708 1798 1099 1004 580 1053 743 1204 1182 1247 951 974 1397 1327 1399 1641 1693 1378 1158 886 984 558 287
0 0 0 0 0 0 0 0 0 0 0 0 104 253 155 0 51 29 0 110 436 640 991 1576 1797 1906 1670 1568 1409 1214 965 727 519 604 646 723 1011 1255 1158 1434 1635 1573 1481 1140 1024 1010 709 616 473
0 0 0 0 0 0 0 0 0 0 0 0 0 12 77 3 0 0 11 241 630 1284 1463 1801 1844 1767 1803 1486 1407 1356 748 487 445 1540 1440 1767 1560 1430 1520 1620 1599 1336 887 858 612 302 91 74 105
0 0 0 0 0 0 0 0 0 0 0 0 0 64 27 131 76 95 4 105 1069 1689 1456 1612 1623 1718 1634 1622 1174 1174 763 1005 1782 1553 1330 930 943 1155 980 772 448 607 131 218 26 1 0 0 0
0 0 0 0 0 0 0 0 0 0 0 0 252 101 116 38 92 68 78 13 0 725 1443 1898 1904 1815 1449 1353 1235 1088 1075 1614 1064 611 551 439 21 0 0 0 0 0 0 0 0 0 0 0 0
0 0 0 0 0 0 0 0 0 0 0 289 272 53 2 2 0 0 0 3 1 0 1757 2146 1849 1812 1617 1372 1959 1722 1350 906 181 13 0 0 0 0 0 0 0 0 0 0 0 0 0 0 0
0 0 0 0 0 0 0 0 0 0 0 377 340 225 112 0 0 0 0 0 0 0 16 1880 1966 1963 2108 1977 1594 1414 1069 765 119 0 0 0 0 0 0 0 0 0 0 0 0 0 0 0 0
0 0 0 0 0 0 0 0 0 0 0 101 51 173 0 0 0 0 0 0 0 4 78 826 1704 2046 2419 1904 1943 1409 137 8 0 0 0 0 0 0 0 0 0 0 0 0 0 0 0 0 0
0 0 0 0 0 1 0 6 0 0 0 175 29 41 0 0 0 0 4 0 177 578 856 1202 1099 2211 2306 2030 1614 285 37 0 0 0 0 0 0 0 0 0 0 0 0 0 0 0 0 0 0
0 14 2 3 7 0 0 0 0 0 0 186 35 0 0 0 0 22 119 182 225 1324 1963 1998 1986 2065 1800 2101 1326 133 25 0 0 0 0 0 0 0 0 0 0 0 0 0 0 0 0 0 0
0 0 0 0 0 0 0 36 0 0 0 188 111 17 3 31 9 184 77 315 1050 1736 1964 2028 1917 1912 1497 667 413 76 10 4 0 0 0 0 0 0 0 0 0 0 0 0 0 0 0 0 0
0 0 0 1 4 65 124 5 0 0 0 77 185 51 49 35 0 56 5 864 1422 1912 1982 1903 2299 1153 545 176 8 1 0 0 0 0 0 0 0 0 0 0 0 0 0 0 0 0 0 0 0
0 0 0 0 31 139 25 12 0 11 0 58 182 56 47 17 3 0 685 933 1639 1650 1829 1668 692 264 106 8 7 0 0 0 0 0 0 0 0 0 0 0 0 0 0 0 0 0 0 0 0
0 0 0 0 0 40 126 24 1 0 3 10 0 1 46 10 0 0 51 905 1300 1657 1222 501 30 2 0 0 0 0 0 0 0 0 0 0 0 0 0 0 0 0 0 0 0 0 0 0 0
0 0 0 3 131 59 101 14 11 59 59 90 121 10 27 95 79 2 136 293 1087 918 341 15 0 0 0 0 0 0 0 0 0 0 0 0 0 0 0 0 0 0 0 0 0 0 0 0 0

GFSSGP_con_sbcape_162.txt.gz
CAPE
0 0 0 0 0 0 0 0 0 31 81 64 37 59 11 1 96 52 174 143 949 1290 1748 1719 1668 1511 1382 1451 1240 1096 938 858 1193 1426 1356 1084 787 657 719 987 1050 792 344 408 584 713 671 295 395
0 0 0 0 0 0 0 0 0 0 35 3 51 133 65 56 489 366 307 616 1142 1363 1514 1453 1612 1421 1379 1397 1266 1161 1039 859 1125 1399 1372 1177 904 643 489 809 894 528 370 284 210 206 213 232 201
0 0 0 0 0 0 0 0 0 19 42 4 123 282 119 658 472 335 263 739 1229 1392 1464 1481 1551 1380 1378 1351 1261 1191 1118 853 1055 1333 1298 1092 859 777 643 592 678 370 256 214 175 140 126 46 0
0 0 0 0 0 0 0 0 0 37 2 8 3 159 55 527 600 228 443 714 987 1174 1490 1732 1531 1409 1353 1327 1234 1199 1177 948 1016 1192 1126 931 597 601 556 590 541 420 66 86 103 61 0 0 0
0 0 0 0 0 0 0 0 0 0 0 0 107 305 517 483 383 301 227 594 948 1163 1394 1545 1618 1509 1384 1375 1266 1223 1165 1009 996 1164 1014 851 794 794 652 548 465 238 77 28 4 0 0 0 0
0 0 0 0 0 0 0 0 0 0 0 384 823 1111 667 416 286 103 244 703 972 1071 1284 1512 1684 1495 1325 1355 1279 1188 1071 1003 978 1033 1059 871 897 883 685 497 411 316 232 114 12 14 2 7 26
0 0 0 0 0 0 0 0 0 0 1 554 868 795 424 321 46 20 418 518 896 941 1071 1381 1386 1391 1426 1313 1201 1108 1020 991 935 942 904 830 894 731 522 289 172 127 64 54 21 12 18 26 39
0 0 0 0 0 0 0 0 0 0 150 638 184 31 428 322 147 106 234 256 609 876 805 911 923 1196 1029 991 1236 1092 1034 966 861 898 854 787 797 641 533 206 170 234 139 65 22 17 25 14 10
0 0 0 0 0 0 0 0 0 845 716 1056 1240 427 361 343 146 154 21 56 155 505 602 722 693 701 703 815 937 1066 857 838 855 867 838 491 145 197 160 238 274 552 399 313 221 140 103 112 164
0 0 0 0 0 0 0 0 0 555 1451 1104 820 632 741 244 157 93 31 23 0 57 149 334 271 226 368 791 692 391 311 384 324 309 326 25 0 0 7 175 698 698 755 579 396 276 262 302 0
0 0 0 0 0 0 0 0 0 130 738 1071 799 694 519 294 107 77 39 30 0 0 9 0 2 0 25 198 69 39 34 59 49 60 62 0 0 0 1 0 40 286 478 165 121 83 8 0 0
0 0 0 0 0 0 0 0 0 0 0 1042 682 673 494 325 233 251 113 21 0 0 0 0 0 0 0 0 0 0 0 0 0 0 0 0 0 0 0 0 0 7 13 18 0 0 0 0 0
0 0 0 0 0 0 0 0 0 0 0 1072 523 354 329 165 258 386 216 53 0 0 0 0 0 0 0 0 0 0 0 0 0 0 0 0 0 0 78 1 0 0 0 0 0 0 0 0 0
0 0 0 0 0 0 0 0 0 0 0 834 547 260 69 3 4 444 127 41 2 0 0 0 0 0 0 0 0 0 0 0 1 10 49 83 262 567 528 163 127 9 0 0 0 0 20 102 182
0 0 0 0 0 0 0 0 0 0 0 714 731 306 147 114 434 423 314 86 25 4 16 0 1 60 13 0 7 84 100 144 204 246 540 542 721 696 384 314 288 664 1046 971 766 454 347 193 156
0 0 0 0 0 0 0 0 0 0 0 231 542 374 357 274 298 443 660 492 208 11 36 44 168 391 178 309 192 364 458 402 426 625 881 960 942 540 682 937 1231 1298 1120 873 672 352 192 183 114
0 0 0 0 0 0 0 0 0 0 0 703 651 533 339 83 65 144 0 41 248 201 212 70 554 1104 900 951 700 707 515 594 624 1017 1006 1028 978 922 1004 1501 1235 892 521 261 243 17 11 0 0
0 0 0 0 0 0 0 0 0 0 0 412 993 67 17 24 49 94 23 72 181 134 102 147 1204 1333 1231 936 752 693 393 176 578 792 1376 1450 1401 1523 1460 1094 737 343 16 0 0 0 0 0 0
0 0 0 0 0 0 0 0 0 0 0 130 541 51 10 0 0 6 9 58 3 5 0 0 704 1273 1176 981 827 462 283 1199 1344 1250 953 1004 1011 746 50 1 0 0 0 0 0 0 0 0 0
0 0 0 0 0 0 0 0 0 0 0 0 76 147 206 193 75 26 31 62 41 0 0 0 35 836 1194 879 633 560 1120 798 833 537 138 76 0 0 0 0 0 0 0 0 0 0 0 0 0
0 0 0 0 0 0 0 0 0 0 435 373 197 142 349 361 162 15 27 9 1 3 0 0 1 2 836 889 1031 1053 585 137 3 0 0 0 0 0 0 0 0 0 0 0 0 0 0 0 0
0 0 0 0 0 0 0 0 0 0 366 517 246 277 323 313 340 46 22 0 1 0 1 0 0 1 309 943 1205 1119 804 169 2 0 0 0 0 0 0 0 0 0 0 0 0 0 0 0 0
0 0 0 0 0 0 0 0 0 0 331 587 351 257 232 286 208 37 2 0 3 0 0 0 0 176 535 753 1273 956 533 20 0 0 0 0 0 0 0 0 0 0 0 0 0 0 0 0 0
0 0 0 0 0 0 0 0 0 0 0 395 442 294 136 74 61 39 8 0 0 0 0 0 0 0 6 903 401 360 6 0 0 0 0 0 0 0 0 0 0 0 0 0 0 0 0 0 0
0 0 0 0 0 0 0 0 0 0 0 128 235 257 60 42 26 2 0 22 1 0 0 1 0 0 39 129 73 6 0 0 0 0 0 0 0 0 0 0 0 0 0 0 0 0 0 0 0
0 0 0 0 0 0 0 0 0 0 0 85 146 105 3 47 9 18 49 98 218 20 1 0 0 121 357 267 0 0 0 0 0 0 0 0 0 0 0 0 0 0 0 0 0 0 0 0 0
0 0 0 0 0 0 0 0 0 0 0 188 133 13 2 11 6 93 184 337 305 471 576 36 0 11 83 0 1 0 0 0 0 0 0 0 0 0 0 0 0 0 0 0 0 0 0 0 0
0 0 0 0 1 0 0 0 0 0 0 0 180 55 0 34 93 188 50 333 708 910 853 670 163 0 0 0 0 0 0 0 0 0 0 0 0 0 0 0 0 0 0 0 0 0 0 0 0
0 0 0 0 0 0 0 0 0 0 0 0 273 162 22 58 145 122 64 412 992 971 406 157 7 0 0 0 0 0 0 0 0 0 0 0 0 0 0 0 0 0 0 0 0 0 0 0 0
0 0 0 0 0 0 3 0 2 0 0 20 172 205 123 63 6 0 181 644 643 333 103 3 0 0 0 0 0 0 0 0 0 0 0 0 0 0 0 0 0 0 0 0 0 0 0 0 0

GFSSGP_con_sbcape_165.txt.gz
CAPE
0 0 0 0 0 0 0 0 0 2 50 32 4 4 24 30 82 40 8 68 716 1136 1456 1566 1554 1444 1316 1090 806 782 970 1206 1170 848 752 838 956 850 886 1016 900 612 460 654 846 852 428 344 364
0 0 0 0 0 0 0 0 0 0 4 0 6 64 14 102 400 222 258 572 792 1154 1434 1250 1556 1478 1370 1090 948 750 950 1214 1238 1112 818 678 760 760 608 970 906 470 398 384 380 372 230 192 106
0 0 0 0 0 0 0 0 0 0 28 0 70 142 46 562 372 230 360 784 1056 1192 1228 1148 1518 1420 1346 1030 918 782 840 1190 1212 984 826 634 604 646 848 924 932 436 298 186 108 98 108 42 0
0 0 0 0 0 0 0 0 0 0 2 12 4 56 340 482 310 210 772 1108 1010 968 992 1466 1478 1426 1372 1232 1092 848 754 1148 1308 1046 838 620 448 528 608 672 730 476 204 140 102 62 0 0 0
0 0 0 0 0 0 0 0 0 0 0 0 16 572 526 348 328 520 796 874 724 716 1044 1082 1390 1356 1308 1218 1028 998 776 1036 1360 1178 768 578 490 492 600 574 352 144 46 8 0 0 0 0 0
0 0 0 0 0 0 0 0 0 0 0 0 584 722 246 220 238 344 538 670 784 756 852 1012 1322 1270 1190 1270 1158 1070 848 860 1226 1184 980 796 722 654 594 534 344 190 136 70 8 64 22 2 20
0 0 0 0 0 0 0 0 0 0 0 2 652 782 362 32 28 272 460 680 752 766 720 986 964 970 1172 1232 1160 1102 956 908 982 1068 972 870 872 814 592 374 276 220 156 126 120 104 96 54 34
0 0 0 0 0 0 0 0 0 0 0 464 352 362 358 86 6 442 420 630 614 562 566 658 842 780 804 980 1276 1146 1028 990 966 1004 914 820 858 678 496 168 110 150 106 88 64 78 104 64 48
0 0 0 0 0 0 0 0 0 418 588 1120 244 172 346 50 150 192 244 376 354 464 480 454 794 788 678 668 836 1054 784 762 874 858 918 568 184 192 106 172 144 400 414 382 338 298 272 232 254
0 0 0 0 0 0 0 0 0 58 1074 998 680 508 348 92 126 90 94 194 346 316 366 430 584 494 476 782 712 496 396 376 400 466 446 86 12 0 18 84 358 672 752 812 678 580 568 496 0
0 0 0 0 0 0 0 0 0 0 836 908 672 508 432 112 42 8 8 10 118 226 286 334 408 364 404 676 574 270 122 192 146 178 128 12 0 0 0 0 0 6 166 210 162 28 8 0 0
0 0 0 0 0 0 0 0 0 0 0 282 716 416 406 182 54 12 24 0 2 108 312 322 312 286 252 314 264 86 86 30 26 46 42 0 0 0 0 0 0 0 0 2 4 0 0 0 0
0 0 0 0 0 0 0 0 0 0 0 0 94 388 530 252 58 16 12 10 4 28 98 98 46 56 0 94 4 0 0 0 0 0 0 0 0 0 0 0 12 0 0 0 0 0 0 0 14
0 0 0 0 0 0 0 0 0 0 0 0 640 586 578 262 50 66 26 10 2 2 4 0 0 0 0 0 0 0 0 0 0 0 0 0 0 0 82 176 30 4 0 0 0 2 196 182 84
0 0 0 0 0 0 0 0 0 0 0 0 528 594 410 222 386 300 56 8 0 0 0 0 0 0 0 0 0 0 0 0 0 0 28 36 76 250 488 210 194 818 718 750 640 400 72 32 2
0 0 0 0 0 0 0 0 0 0 0 0 546 534 240 302 596 380 304 244 28 0 0 0 0 6 18 0 0 16 42 42 50 114 156 366 370 606 282 814 1084 784 646 470 84 2 0 0 0
0 0 0 0 0 0 0 0 0 0 0 0 116 664 472 430 342 52 208 480 174 76 86 48 122 84 64 50 34 118 228 214 202 300 460 646 774 630 1028 1074 692 170 0 0 0 0 0 0 0
0 0 0 0 0 0 0 0 0 0 0 0 548 610 552 290 186 62 158 504 84 10 0 6 22 446 376 476 416 362 324 366 398 566 682 1022 1296 1404 910 472 94 0 0 0 0 0 0 0 0
0 0 0 0 0 0 0 0 0 0 0 0 678 586 392 268 104 140 172 276 174 0 2 12 14 0 0 188 586 328 266 1022 986 1192 1148 1174 1110 716 94 0 0 0 0 0 0 0 0 0 0
0 0 0 0 0 0 0 0 0 0 0 82 722 80 52 70 96 102 178 8 46 18 14 18 18 0 0 0 144 332 1028 656 612 348 118 66 2 0 0 0 0 0 0 0 0 0 0 0 0
0 0 0 0 0 0 0 0 0 2 332 4 380 166 92 94 170 136 174 134 72 0 0 0 20 0 0 6 0 160 34 80 38 0 0 0 0 0 0 0 0 0 0 0 0 0 0 0 0
0 0 0 0 0 0 0 0 0 0 348 316 206 352 238 262 230 228 112 136 106 20 0 0 4 48 42 6 26 88 344 132 10 0 0 0 0 0 0 0 0 0 0 0 0 0 0 0 0
0 0 0 0 0 0 0 0 0 0 102 298 304 206 412 458 248 168 138 98 116 12 0 0 0 0 16 0 44 48 234 0 2 0 0 0 0 0 0 0 0 0 0 0 0 0 0 0 0
0 0 0 0 0 0 0 0 0 0 0 110 284 240 314 364 326 146 102 22 22 4 0 0 0 0 6 0 56 142 4 0 0 0 0 0 0 0 0 0 0 0 0 0 0 0 0 0 0
0 0 0 0 0 0 0 0 0 0 0 60 454 378 240 214 80 64 22 0 0 0 0 0 0 6 80 0 94 4 0 2 0 0 0 0 0 0 0 0 0 0 0 0 0 0 0 0 0
0 0 0 0 0 0 0 0 0 0 0 2 486 586 356 86 2 10 0 0 0 0 0 50 2 0 0 34 36 0 0 0 0 0 0 0 0 0 0 0 0 0 0 0 0 0 0 0 0
0 0 0 0 0 0 0 0 0 0 0 20 452 302 342 102 48 14 16 64 56 0 10 24 32 14 0 18 2 0 0 0 0 0 0 0 0 0 0 0 0 0 0 0 0 0 0 0 0
0 0 0 0 0 0 0 0 0 0 0 54 106 180 132 36 30 10 28 112 324 160 238 0 4 42 8 0 0 2 2 0 0 0 0 0 0 0 0 0 0 0 0 0 0 0 0 0 0
0 0 0 0 0 0 0 0 0 0 0 0 14 6 2 0 2 6 54 276 522 554 754 64 20 6 2 2 0 0 0 0 0 0 0 0 0 0 0 0 0 0 0 0 0 0 0 0 0
0 0 0 0 0 0 0 0 0 62 66 0 0 0 0 0 0 10 30 750 870 684 390 52 0 0 0 2 0 0 0 0 0 0 0 0 0 0 0 0 0 0 0 0 0 0 0 0 0

GFSSGP_con_sbcape_168.txt.gz
CAPE
0 0 0 0 0 0 0 0 0 3 17 25 0 3 0 1 39 3 32 73 799 1253 1570 1398 1536 1412 1077 1038 1067 1100 989 975 1140 1182 1087 927 859 817 848 1065 1072 940 760 921 1009 861 453 432 388
0 0 0 0 0 0 0 0 0 0 0 0 0 25 3 16 239 70 102 455 761 1345 1409 1113 1564 1359 1107 945 1031 1072 1056 883 810 863 935 943 949 790 633 921 938 656 711 804 724 512 275 202 102
0 0 0 0 0 0 0 0 0 0 0 0 0 101 125 372 256 81 196 617 879 1129 1242 967 1559 1420 1180 902 925 1092 1155 1122 901 727 696 726 850 951 1035 1072 939 459 343 234 213 164 125 41 0
0 0 0 0 0 0 0 0 0 0 0 0 0 14 382 319 267 368 643 981 919 1054 901 1398 1503 1404 1196 936 839 1000 1176 1254 1046 689 597 539 437 658 946 932 911 542 313 224 145 77 14 0 0
0 0 0 0 0 0 0 0 0 0 0 0 0 295 425 357 647 887 987 897 760 759 750 1087 1395 1357 1301 989 707 859 1160 1350 1260 912 552 447 405 435 565 548 402 292 191 136 66 7 1 0 0
0 0 0 0 0 0 0 0 0 0 0 0 309 507 272 419 683 874 782 608 563 649 911 962 1223 1354 1246 1119 892 754 1044 1318 1334 1081 769 614 472 462 441 441 349 247 188 110 39 119 56 8 2
0 0 0 0 0 0 0 0 0 0 0 0 549 567 286 190 363 646 600 576 559 639 766 785 860 996 1255 1205 1056 805 780 1131 1258 1051 842 754 650 618 535 447 368 289 186 146 139 105 77 30 17
0 0 0 0 0 0 0 0 0 0 0 10 425 257 272 145 274 533 652 669 648 673 569 542 650 551 765 922 1128 981 797 892 1050 992 854 779 780 632 486 154 77 97 88 109 115 110 96 89 74
0 0 0 0 0 0 0 0 0 3 147 831 110 310 290 50 476 513 542 546 541 558 612 531 664 520 514 584 709 960 543 610 807 791 854 545 251 212 102 119 85 246 450 507 460 382 353 338 370
0 0 0 0 0 0 0 0 0 28 742 676 590 338 74 250 352 277 250 248 373 467 538 529 493 462 476 698 529 376 305 358 378 419 463 132 50 5 24 43 218 489 815 897 920 952 899 541 7
0 0 0 0 0 0 0 0 0 0 109 698 606 349 64 213 90 81 94 160 280 375 427 481 396 425 373 501 478 196 170 220 159 215 174 36 6 0 0 0 0 0 28 107 161 44 0 0 0
0 0 0 0 0 0 0 0 0 0 0 0 0 240 115 125 78 33 21 107 207 281 321 385 470 374 309 367 369 220 171 128 101 75 73 14 0 0 0 0 0 0 0 2 8 2 0 0 0
0 0 0 0 0 0 0 0 0 0 0 0 0 2 340 129 116 46 0 0 34 129 279 275 288 199 88 325 199 78 98 71 23 23 15 0 0 0 0 0 14 58 0 5 4 4 14 138 278
0 0 0 0 0 0 0 0 0 0 0 0 0 131 402 187 88 22 31 0 0 1 108 103 22 32 13 60 16 29 12 5 0 0 0 0 0 0 0 45 156 124 186 76 47 277 422 214 18
0 0 0 0 0 0 0 0 0 0 0 0 0 466 227 205 67 44 32 0 0 0 0 0 0 0 0 0 0 0 0 0 0 0 0 0 0 6 171 306 271 823 705 679 589 156 0 0 0
0 0 0 0 0 0 0 0 0 0 0 0 0 455 366 594 610 364 47 0 0 0 0 0 0 0 0 0 0 0 0 0 0 0 8 97 118 159 369 414 938 703 507 138 40 0 0 0 0
0 0 0 0 0 0 0 0 0 0 0 0 0 401 339 696 309 258 259 12 0 0 0 0 3 1 0 0 0 0 0 5 14 83 131 267 503 645 629 978 405 68 3 0 0 0 0 0 0
1 0 0 0 0 0 0 0 0 0 0 0 0 245 462 584 311 445 259 131 90 45 13 267 207 165 261 330 319 185 165 135 185 211 330 383 705 912 904 198 0 0 0 0 0 0 0 0 0
27 0 0 0 0 0 0 0 0 0 0 0 0 403 481 479 217 497 237 122 89 38 45 24 4 10 61 241 405 215 211 618 454 314 430 1081 1076 675 30 0 0 0 0 0 0 0 0 0 0
36 9 0 0 0 0 0 0 0 0 0 0 0 375 364 236 168 373 395 212 193 160 136 0 0 17 18 110 99 0 0 0 12 4 2 36 18 0 0 0 0 0 0 0 0 0 0 0 0
35 18 0 0 0 0 0 0 0 0 4 0 5 91 195 339 210 236 345 169 198 257 143 113 32 28 36 33 0 0 0 0 1 3 0 1 0 0 0 0 0 0 0 0 0 0 0 0 0
18 6 0 0 0 0 0 0 0 0 0 3 0 73 43 159 166 127 191 106 158 79 2 11 53 15 24 69 52 6 1 0 25 1 4 6 0 0 0 0 0 0 0 0 0 0 0 0 0
14 0 0 0 0 0 0 0 0 0 0 0 0 5 25 103 187 116 186 179 117 90 0 0 2 8 0 10 0 0 0 0 1 1 2 2 9 1 0 0 0 0 0 0 0 0 0 0 0
2 0 0 0 0 0 0 0 0 0 0 0 1 1 109 200 187 163 157 79 68 3 0 0 0 0 0 16 35 4 21 6 1 2 3 8 3 0 0 0 0 0 0 0 0 0 0 0 0
0 0 0 0 0 0 0 0 0 0 0 0 0 25 121 318 361 204 153 67 10 0 0 0 0 0 0 0 208 50 2 0 0 0 2 10 7 1 0 0 0 0 0 0 0 0 0 0 0
0 0 0 0 0 0 0 0 0 0 0 0 3 9 93 259 236 201 66 0 0 0 0 0 0 0 99 9 177 2 1 1 2 3 4 7 0 0 0 0 0 0 0 0 0 0 0 0 0
0 0 0 0 0 0 0 0 0 0 0 31 191 266 228 105 11 22 3 0 0 0 0 2 2 29 135 148 2 1 1 1 2 1 0 0 0 0 0 0 0 0 0 0 0 0 0 0 0
0 0 0 0 0 0 0 0 0 0 0 0 251 410 351 154 47 0 37 63 17 0 0 0 21 5 118 49 2 1 2 2 0 2 0 0 0 0 0 0 0 0 0 0 0 0 0 0 0
0 0 0 0 0 0 0 0 0 0 0 0 0 119 352 341 168 7 6 56 145 36 1 0 63 49 41 2 1 1 1 2 0 0 0 0 0 0 0 0 0 0 0 0 0 0 0 0 0
0 0 0 0 0 0 0 0 0 35 27 0 0 0 0 5 2 0 0 23 498 410 48 29 32 1 1 1 2 1 1 0 0 0 0 0 0 0 0 0 0 0 0 0 0 0 0 0 0

GFSSGP_con_sbcape_171.txt.gz
CAPE
0 0 0 0 0 0 0 0 0 0 0 23 14 184 11 5 23 40 526 816 552 1371 1035 821 1270 1229 1290 1326 1289 1426 1498 1378 1161 897 921 960 985 928 894 1129 1146 875 851 941 974 753 508 456 283
0 0 0 0 0 0 0 0 0 0 0 0 0 0 1 59 602 546 625 678 953 1424 974 440 1240 1212 1238 1210 1145 1153 1296 1311 1239 1005 943 919 937 905 798 1076 1065 859 972 1023 855 473 279 150 31
0 0 0 0 0 0 0 0 0 0 0 0 0 38 142 406 565 539 477 928 1399 1327 853 778 1309 1175 1224 1182 1120 1023 999 1070 1112 1014 981 983 926 918 993 1023 953 656 562 412 331 199 71 1 0
0 0 0 0 0 0 0 0 0 0 0 0 0 60 619 564 621 545 802 961 1367 1158 633 1220 1306 1118 1152 1177 1177 1143 1029 861 806 743 768 850 712 880 1075 884 718 490 310 208 142 51 0 0 0
0 0 0 0 0 0 0 0 0 0 0 0 0 108 493 808 734 972 1033 967 1246 1073 643 879 1401 1221 1125 1166 1255 1252 1185 991 748 681 570 583 612 635 678 635 534 422 285 168 52 0 0 0 0
0 0 0 0 0 0 0 0 0 0 0 0 0 243 565 841 1102 1206 1123 1006 1091 1100 812 782 1341 1318 1045 1061 1213 1319 1309 1241 1043 811 715 586 458 407 281 259 221 163 95 48 24 13 16 31 22
0 0 0 0 0 0 0 0 0 0 0 0 13 198 682 759 1138 1131 1055 922 1050 1168 865 707 528 953 1163 926 976 1184 1311 1338 1125 846 705 580 356 282 187 188 162 128 66 25 3 8 40 31 50
0 0 0 0 0 0 0 0 0 0 0 0 0 0 374 615 1151 954 951 830 868 1156 815 624 494 346 387 407 860 957 1181 1277 1078 855 658 604 394 277 201 87 65 40 32 30 90 160 186 188 193
0 0 0 0 0 0 0 0 0 0 0 0 120 404 627 651 1010 930 912 836 802 942 814 478 349 456 430 283 430 661 598 895 922 725 595 259 69 80 45 71 75 104 196 336 549 608 578 630 585
0 0 0 0 0 0 0 0 0 0 0 7 485 549 615 905 1112 937 887 779 842 867 758 537 418 377 394 284 446 204 70 40 135 300 332 91 123 119 44 42 115 244 352 669 628 660 423 213 307
0 0 0 0 0 0 0 0 0 0 0 0 19 733 866 964 1005 922 789 597 647 757 791 652 790 673 345 393 623 328 243 186 162 176 291 277 85 65 27 13 21 168 141 313 353 472 351 404 397
0 0 0 0 0 0 0 0 0 0 0 221 0 122 743 1007 1084 887 598 495 575 705 831 855 713 742 626 549 491 431 292 257 96 86 196 257 83 77 46 4 70 326 730 664 695 520 567 783 1162
0 0 0 0 0 0 0 0 0 0 0 0 0 0 235 900 862 648 433 386 468 611 703 799 568 991 829 681 503 438 438 296 136 119 101 101 67 77 39 44 281 869 757 848 866 965 1305 1268 619
0 0 0 0 0 0 0 0 0 0 0 0 0 0 37 482 617 378 314 380 555 552 670 625 631 799 657 672 475 576 580 430 225 77 47 90 88 111 36 107 1266 1069 1812 1640 1261 1502 636 1 0
0 0 0 0 0 0 0 0 0 0 0 0 0 0 536 589 599 472 304 322 493 558 579 387 419 366 534 851 654 565 529 378 256 56 42 49 105 117 129 799 1104 1874 1930 1717 998 0 0 0 0
0 9 7 0 0 0 0 0 0 0 0 0 0 0 740 821 729 678 433 319 390 358 587 522 428 468 784 676 571 408 352 277 191 16 0 10 51 86 333 1172 1777 1968 1120 546 68 0 0 0 0
44 1 0 0 0 0 0 0 0 0 0 0 0 0 800 1066 907 808 595 388 292 275 357 409 421 389 422 299 167 191 204 119 69 41 41 78 78 371 956 1591 780 210 4 26 18 0 0 0 0
2 10 0 0 0 0 0 0 0 0 0 0 0 0 732 1226 1213 998 780 522 379 266 303 334 235 299 290 103 116 151 219 359 539 683 717 525 656 840 1533 1 0 0 0 0 0 0 0 0 0
46 58 0 0 0 0 0 0 0 0 0 0 0 0 665 1194 1167 1149 801 495 398 364 448 501 458 632 724 581 785 954 1036 1306 1159 1122 971 928 1198 98 0 0 0 0 0 0 0 0 0 0 0
83 80 3 0 0 0 0 0 0 0 0 0 0 86 850 1135 1095 1017 875 778 688 712 767 702 730 1059 1220 1437 1446 1052 1060 727 825 647 722 747 112 1 0 0 0 0 0 0 0 0 0 0 0
11 74 45 2 0 0 0 0 0 0 0 0 0 0 754 1074 1034 1012 1037 1018 906 743 843 886 907 1368 1529 1412 1171 588 264 190 163 228 7 44 12 1 2 0 0 0 0 0 0 0 0 0 0
12 19 49 14 0 0 0 0 0 0 0 0 0 75 839 1124 1299 1194 1192 1158 1157 981 864 883 1035 1264 1186 868 385 434 362 220 309 16 9 9 8 2 2 2 2 0 0 0 0 0 0 0 0
15 8 45 35 9 0 0 0 0 0 0 0 0 8 631 1113 1288 1488 1428 1373 1202 1105 1001 1185 1135 912 717 741 620 335 300 79 3 2 8 8 9 7 4 2 1 0 0 0 0 0 0 0 0
1 0 5 0 0 0 0 0 0 0 0 0 0 0 206 852 1134 1320 1482 1181 1187 1002 751 688 766 835 644 644 600 617 338 14 3 4 8 5 6 5 10 5 0 0 0 0 0 0 0 0 0
90 68 71 17 0 0 0 0 0 0 0 0 0 0 185 463 890 1000 1114 1020 1157 984 726 571 548 659 642 588 562 517 409 88 5 6 9 8 3 4 7 2 0 0 0 0 0 0 0 0 0
17 44 9 1 0 0 0 0 0 0 0 0 0 0 203 641 715 934 1073 1197 1091 929 744 580 587 559 546 448 521 482 425 81 11 10 7 2 1 6 5 0 0 0 0 0 0 0 0 0 0
17 5 0 0 0 0 0 0 0 0 0 0 0 47 171 621 972 869 927 923 856 768 690 671 559 374 367 365 342 91 53 10 8 3 3 6 6 1 0 0 0 0 0 0 0 0 0 0 0
13 4 2 13 0 0 0 0 0 0 0 34 110 81 263 672 781 947 868 860 771 670 583 474 466 489 478 423 209 26 30 4 7 5 6 2 0 0 0 0 0 0 0 0 0 0 0 0 0
0 0 0 2 0 0 0 0 0 91 168 52 0 23 370 737 810 884 882 827 665 559 534 556 394 510 398 115 21 6 8 8 5 5 2 0 0 0 0 0 0 0 0 0 0 0 0 0 0
1 0 0 0 0 0 0 0 109 182 103 77 78 25 0 346 964 795 792 882 767 593 481 296 274 359 135 15 7 5 6 5 1 0 0 0 0 0 0 0 0 0 0 0 0 0 0 0 0

GFSSGP_con_sbcape_174.txt.gz
CAPE
0 0 0 0 0 0 0 0 0 0 0 33 68 204 242 175 294 892 926 897 580 723 118 664 1425 1767 1875 1798 1727 1590 1411 1304 1281 1363 1429 1442 1224 876 878 1024 881 727 800 852 758 538 407 309 138
0 0 0 0 0 0 0 0 0 0 0 0 3 26 146 280 585 1222 1242 914 1057 791 137 44 1367 1606 1740 1760 1690 1511 1386 1239 1086 1106 1145 1156 1012 942 770 916 926 924 988 906 589 322 176 20 0
0 0 0 0 0 0 0 0 0 0 0 0 0 0 0 475 842 1170 1445 1121 1363 815 79 185 1382 1460 1590 1609 1610 1507 1454 1289 1134 930 919 1017 1069 1051 1134 1026 845 834 752 523 311 79 0 0 0
0 0 0 0 0 0 0 0 0 0 0 0 0 0 531 1097 1182 1232 1431 1247 1434 621 125 927 1330 1394 1427 1446 1390 1377 1408 1354 1154 852 863 779 621 767 842 620 526 373 169 54 0 0 0 0 0
0 0 0 0 0 0 0 0 0 0 0 0 0 5 428 1382 1290 1404 1555 1417 1256 628 382 453 1291 1331 1353 1346 1275 1193 1216 1160 1102 944 711 653 601 540 519 464 411 299 153 17 0 0 0 0 0
0 0 0 0 0 0 0 0 0 0 0 0 0 0 173 1519 1596 1536 1545 1493 1096 695 563 363 1112 1217 1201 1286 1265 1102 947 832 870 848 827 644 443 379 336 257 142 46 0 0 0 0 0 0 0
0 0 0 0 0 0 0 0 0 0 0 0 0 7 804 1324 1774 1661 1515 1456 1278 822 529 299 163 636 1148 1234 1208 1138 1020 849 800 766 692 531 198 103 54 41 27 15 0 0 0 0 0 16 90
0 0 0 0 0 0 0 0 0 0 0 0 0 0 13 1217 1640 1667 1428 1398 1396 921 613 294 198 44 17 242 1246 1274 1171 1037 837 709 494 448 112 56 22 16 0 0 1 14 31 49 124 382 430
0 0 0 0 0 0 0 0 0 0 0 0 0 0 1040 1610 1445 1443 1264 1229 1297 956 693 323 197 119 11 0 414 1057 982 877 808 396 327 50 0 0 0 0 34 61 120 205 297 569 796 878 653
0 0 0 0 0 0 0 0 0 0 0 0 0 659 1247 1776 1401 1073 1018 933 967 1023 770 463 280 300 197 20 123 0 102 191 178 59 2 0 20 24 0 0 18 69 135 259 566 494 450 345 406
0 0 0 0 0 0 0 0 0 0 0 0 0 132 1248 1725 1417 1022 939 808 790 864 848 598 551 617 422 220 100 0 0 0 57 248 297 47 5 3 0 0 1 186 204 571 525 586 523 812 1083
0 0 0 0 0 0 0 0 0 0 0 0 0 0 1001 1656 1687 1022 1095 1018 943 957 913 768 753 818 613 503 520 225 35 2 0 4 229 259 57 29 0 1 90 515 597 937 823 565 1447 1831 1921
0 0 0 0 0 0 0 0 0 0 0 0 0 242 1123 1526 1822 1520 1253 1077 954 1023 1001 935 1149 1118 838 952 651 552 328 101 0 0 20 10 4 5 0 84 546 989 882 978 1216 1470 2084 1609 726
0 0 0 0 0 0 0 0 0 0 0 0 0 0 24 1026 1673 1828 1539 1163 1068 1046 1090 1057 1154 1249 1187 1078 945 892 768 396 155 0 0 26 8 58 0 293 1082 1337 1297 1419 1668 1298 435 165 9
0 0 0 0 0 0 0 0 0 0 0 0 0 0 0 19 1388 1835 1611 1346 1158 1096 1230 1384 1180 1399 1480 1215 1256 974 909 592 179 29 37 9 94 249 218 965 1570 1849 1760 1528 1251 96 0 0 0
0 3 0 0 0 0 0 0 0 0 0 0 0 0 0 147 791 1592 1461 1434 1268 1115 1225 1265 1058 1341 1449 1379 1325 908 786 420 195 75 36 50 116 137 465 1596 1802 1425 201 47 0 0 0 0 0
2 0 0 0 0 0 0 0 0 0 0 0 0 0 0 255 1031 1424 1281 1283 1263 1118 1220 1134 1013 893 1092 1522 1275 875 764 326 196 68 28 95 104 314 840 1920 417 75 4 0 0 0 0 0 0
11 5 1 0 0 0 0 0 0 0 0 0 0 0 0 363 1180 1576 1476 1209 1184 1125 1234 1086 932 1140 1365 1295 1142 441 383 198 105 77 55 190 319 1012 1917 640 46 27 0 0 0 0 0 0 0
94 36 14 1 0 0 0 0 0 0 0 0 0 0 0 350 1118 1734 1687 1420 1117 1105 1285 1407 1117 1647 1486 899 326 143 109 152 242 377 479 648 1141 1482 289 0 0 0 0 0 0 0 0 0 0
161 71 65 46 2 0 0 0 0 0 0 0 0 0 0 288 1304 1990 1917 1552 1365 1292 1323 1369 1198 1343 1360 590 521 507 630 658 915 1194 1448 1545 974 35 0 0 0 0 0 0 0 0 0 0 0
184 142 129 90 9 0 6 3 0 0 0 0 0 0 0 164 1601 2158 2042 1754 1631 1627 1596 1502 1436 1322 1026 1089 1479 1670 1640 1629 1275 415 508 311 341 9 1 0 0 0 0 0 0 0 0 0 0
66 13 48 213 74 0 2 0 0 0 0 0 0 0 0 368 1136 1999 2185 2018 1936 1891 1797 1621 1331 1303 1161 1520 1915 2395 1362 1499 1304 233 328 153 6 7 3 1 0 0 0 0 0 0 0 0 0
12 15 202 236 16 13 0 0 0 0 0 0 0 0 0 296 1016 1667 2037 2174 2121 1952 1887 1776 1565 1512 1298 1506 1366 1378 1425 1357 378 201 83 22 11 10 2 1 0 0 0 0 0 0 0 0 0
15 5 215 245 132 97 17 0 0 0 0 0 0 0 0 293 1149 1694 1904 2024 1976 1743 1909 1908 1960 1880 1801 1644 1579 1462 1336 679 353 160 20 9 7 12 1 0 0 0 0 0 0 0 0 0 0
49 215 275 173 168 35 8 0 3 0 0 0 0 0 0 414 1311 2010 2082 2027 2122 2072 2045 2077 2080 1894 1689 1651 1592 1612 1640 961 568 282 48 9 6 7 10 7 0 0 2 0 0 0 0 0 0
10 288 170 132 44 91 2 0 0 0 0 0 0 0 3 401 1127 1848 2282 2125 2107 2115 1982 1865 1956 1993 1897 1849 1817 1789 1648 1138 735 393 43 5 5 12 11 2 3 5 0 0 0 0 0 0 0
146 186 180 218 117 75 0 0 0 0 0 0 0 0 6 255 727 1492 2087 2194 2268 2224 2095 1931 1886 1855 1706 1518 1543 1569 1355 1380 600 214 123 9 6 4 5 0 0 0 0 0 0 0 0 0 0
210 145 143 234 46 69 0 0 15 0 0 0 0 0 46 534 844 1185 1714 2112 2251 2128 2012 1899 1693 1595 1457 1375 1085 995 664 474 261 48 12 8 2 0 0 0 0 0 0 0 0 0 0 0 0
73 244 166 278 276 118 23 114 220 269 183 0 0 0 128 627 1117 1315 1651 1864 1792 1764 1617 1556 1450 1325 1200 990 570 551 290 86 10 7 4 0 0 0 0 0 0 0 0 0 0 0 0 0 4
66 96 244 225 91 96 65 310 456 359 320 208 75 64 205 712 1032 1401 1557 1655 1616 1573 1512 963 974 781 599 322 63 9 7 8 2 2 1 1 1 0 0 0 0 0 0 0 0 0 0 0 1